Aberdeen, SD

6:12 PM CST on January 19, 2017 (GMT -0600)
Aberdeen Regional

Weather History for KABR - December, 2013

Change the Weather History Date:

Monday, December 9, 2013

  Actual Average Record
Temperature  
Mean Temperature 1 °F 17 °F  
Max Temperature 19 °F 27 °F 61 °F (1939)
Min Temperature -17 °F 8 °F -27 °F (1955)
Degree Days  
Heating Degree Days 64 48  
Month to date heating degree days 526 414  
Since 1 July heating degree days 2517 2377  
Cooling Degree Days 0 0  
Month to date cooling degree days 0 0  
Year to date cooling degree days 580 525  
Moisture  
Dew Point -5 °F    
Average Humidity 77    
Maximum Humidity 88    
Minimum Humidity 65    
Precipitation  
Precipitation 0.01 in 0.02 in 0.25 in (1924)
Month to date precipitation 0.37 0.16  
Year to date precipitation 21.39 21.36  
Snow  
Snow 0.20 in - - ()
Month to date snowfall 4.7  
Since 1 July snowfall 8.0  
Snow Depth 2.00 in    
Sea Level Pressure  
Sea Level Pressure 30.01 in    
Wind  
Wind Speed 13 mph (WSW)    
Max Wind Speed 33 mph    
Max Gust Speed 39 mph    
Visibility 8 miles    
Events Snow    
T = Trace of Precipitation, MM = Missing Value Source: NWS Daily Summary

Daily Weather History Graph

Daily Weather History Graph

Search for Another Location

Airport or City:

Trip Planner

Search our weather history database for the weather conditions in past years. The results will help you decide how hot, cold, wet, or windy it might be!

Date:

Astronomy

Dec. 09, 2013 Rise Set
Actual Time 8:01 AM CST 4:50 PM CST
Civil Twilight 7:27 AM CST 5:24 PM CST
Nautical Twilight 6:50 AM CST 6:01 PM CST
Astronomical Twilight 6:14 AM CST 6:37 PM CST
Moon 12:38 PM CST (12/9) No Moon Set
Length of Visible Light 9h 56m
Length of Day
8h 48m
Waxing Crescent, 51% of the Moon is Illuminated
Dec 9
Waxing Crescent
Dec 17
Full
Dec 25
Last Quarter
Jan 1
New
Jan 7
First Quarter

Hourly Weather History & Observations

Time (CST) Temp. Windchill Dew Point Humidity Pressure Visibility Wind Dir Wind Speed Gust Speed Precip Events Conditions
12:53 AM -9.0 °F -27.4 °F -16.1 °F 71% 30.20 in 10.0 mi West 10.4 mph - N/A   Clear
1:53 AM -9.9 °F -27.5 °F -16.1 °F 74% 30.20 in 10.0 mi West 9.2 mph - N/A   Clear
2:53 AM -9.0 °F -26.4 °F -16.1 °F 71% 30.22 in 10.0 mi West 9.2 mph - N/A   Clear
3:53 AM -11.0 °F -31.8 °F -17.0 °F 75% 30.21 in 10.0 mi WNW 12.7 mph - N/A   Clear
4:53 AM -14.1 °F -29.9 °F -18.9 °F 79% 30.22 in 10.0 mi WSW 6.9 mph - N/A   Clear
5:53 AM -11.0 °F -28.8 °F -17.0 °F 75% 30.23 in 10.0 mi West 9.2 mph - N/A   Clear
6:53 AM -11.0 °F -27.6 °F -17.0 °F 75% 30.24 in 10.0 mi West 8.1 mph - N/A   Clear
7:53 AM -11.0 °F -26.2 °F -17.0 °F 75% 30.24 in 10.0 mi WSW 6.9 mph - N/A   Clear
8:53 AM -14.1 °F -29.9 °F -20.0 °F 75% 30.25 in 10.0 mi SW 6.9 mph - N/A   Clear
9:53 AM -11.0 °F -24.6 °F -17.0 °F 75% 30.25 in 10.0 mi South 5.8 mph - N/A   Clear
10:53 AM -6.0 °F -22.6 °F -13.0 °F 72% 30.25 in 10.0 mi WSW 9.2 mph - N/A   Clear
11:53 AM -2.0 °F -19.6 °F -11.0 °F 66% 30.20 in 10.0 mi WSW 11.5 mph - N/A   Clear
12:53 PM -0.9 °F -18.3 °F -9.0 °F 69% 30.14 in 10.0 mi South 11.5 mph - N/A   Clear
1:53 PM 1.0 °F -17.3 °F -8.0 °F 66% 30.11 in 10.0 mi South 13.8 mph - N/A   Clear
2:53 PM 1.9 °F -16.9 °F -6.0 °F 69% 30.06 in 10.0 mi SSW 15.0 mph - N/A   Clear
3:53 PM 1.9 °F -16.9 °F -5.1 °F 72% 30.01 in 10.0 mi South 15.0 mph - N/A   Overcast
4:53 PM 3.0 °F -16.7 °F -5.1 °F 69% 29.97 in 10.0 mi South 17.3 mph - N/A   Scattered Clouds
5:53 PM 3.0 °F -17.8 °F -4.0 °F 73% 29.93 in 10.0 mi South 19.6 mph - N/A   Overcast
6:27 PM 3.2 °F -17.6 °F -2.2 °F 78% 29.79 in 2.5 mi South 19.6 mph - 0.00 in Snow Light Snow
6:53 PM 5.0 °F -14.7 °F -0.0 °F 80% 29.88 in 1.5 mi South 18.4 mph - 0.00 in Snow Light Snow
7:10 PM 5.0 °F -13.6 °F 1.4 °F 85% 29.76 in 3.0 mi South 16.1 mph - 0.00 in Snow Light Snow
7:25 PM 6.8 °F -11.3 °F 1.4 °F 79% 29.75 in 2.5 mi SSW 16.1 mph - 0.00 in Snow Light Snow
7:49 PM 8.6 °F -10.0 °F 3.2 °F 79% 29.73 in 4.0 mi SSW 18.4 mph - 0.00 in Snow Light Snow
7:53 PM 8.1 °F -10.7 °F 3.9 °F 83% 29.84 in 5.0 mi SSW 18.4 mph - 0.00 in Snow Light Snow
8:02 PM 8.6 °F -10.5 °F 5.0 °F 85% 29.73 in 5.0 mi SSW 19.6 mph - 0.00 in Snow Light Snow
8:53 PM 16.0 °F 0.1 °F 12.0 °F 84% 29.82 in 8.0 mi WSW 17.3 mph 25.3 mph 0.00 in Snow Light Snow
9:53 PM 17.1 °F -0.6 °F 9.0 °F 71% 29.83 in 8.0 mi WNW 23.0 mph - 0.00 in   Overcast
10:35 PM 12.2 °F -5.8 °F 6.8 °F 79% 29.77 in 5.0 mi NW 19.6 mph 31.1 mph 0.01 in Snow Light Snow
10:53 PM 12.0 °F -6.0 °F 6.1 °F 77% 29.88 in 8.0 mi NW 19.6 mph 28.8 mph 0.01 in   Mostly Cloudy
11:04 PM 12.2 °F -8.9 °F 6.8 °F 79% 29.79 in 4.0 mi NW 28.8 mph 36.8 mph 0.00 in Snow Light Snow
11:08 PM 10.4 °F -12.3 °F 5.0 °F 79% 29.80 in 1.8 mi NW 32.2 mph 39.1 mph 0.00 in Snow Light Snow
11:18 PM 10.4 °F -9.5 °F 3.2 °F 73% 29.81 in 3.0 mi NW 23.0 mph 36.8 mph 0.00 in   Scattered Clouds
11:53 PM 7.0 °F -14.5 °F 1.0 °F 77% 29.94 in 5.0 mi NW 24.2 mph 34.5 mph 0.00 in   Clear